Tahlequah, OK

6:55 AM CDT on April 30, 2017 (GMT -0500)
Tahlequah Municipal

Weather History for KTQH - November, 2011

Change the Weather History Date:

Tuesday, November 8, 2011

  Actual Average (KMKO) Record (KMKO)
Temperature  
Mean Temperature 60 °F -  
Max Temperature 64 °F 60 °F 84 °F (2005)
Min Temperature 55 °F 41 °F 32 °F (1997)
Degree Days  
Heating Degree Days 6    
Growing Degree Days 10 (Base 50)    
Moisture  
Dew Point 57 °F    
Average Humidity 98    
Maximum Humidity 100    
Minimum Humidity 88    
Precipitation  
Precipitation 3.44 in - - ()
Sea Level Pressure  
Sea Level Pressure 29.88 in    
Wind  
Wind Speed 9 mph (SE)    
Max Wind Speed 20 mph    
Max Gust Speed 26 mph    
Visibility 6 miles    
Events      
Averages and records for this station are not official NWS values.
T = Trace of Precipitation, MM = Missing Value Source: NWS Daily Summary

Daily Weather History Graph

Daily Weather History Graph

Search for Another Location

Airport or City:

Trip Planner

Search our weather history database for the weather conditions in past years. The results will help you decide how hot, cold, wet, or windy it might be!

Date:

Astronomy

Nov. 08, 2011 Rise Set
Actual Time 6:49 AM CST 5:17 PM CST
Civil Twilight 6:22 AM CST 5:44 PM CST
Nautical Twilight 5:51 AM CST 6:15 PM CST
Astronomical Twilight 5:21 AM CST 6:45 PM CST
Moon 3:57 PM CST (11/8) 4:50 AM CST (11/8)
Length of Visible Light 11h 22m
Length of Day
10h 28m
Waxing Gibbous, 96% of the Moon is Illuminated
Nov 8
Waxing Gibbous
Nov 10
Full
Nov 18
Last Quarter
Nov 25
New
Dec 2
First Quarter

Hourly Weather History & Observations

Time (CST) Temp. Windchill Dew Point Humidity Pressure Visibility Wind Dir Wind Speed Gust Speed Precip Events Conditions
12:15 AM 64.4 °F - 60.8 °F 88% 29.90 in 10.0 mi SSE 11.5 mph 19.6 mph N/A   Mostly Cloudy
12:35 AM 64.4 °F - 60.8 °F 88% 29.89 in 10.0 mi SSE 11.5 mph 18.4 mph N/A   Overcast
1:15 AM 62.6 °F - 60.8 °F 94% 29.89 in 7.0 mi SSE 13.8 mph 19.6 mph N/A   Overcast
1:35 AM 60.8 °F - 60.8 °F 100% 29.90 in 1.0 mi SSE 13.8 mph - 0.31 in   Overcast
1:55 AM 60.8 °F - 60.8 °F 100% 29.93 in 1.8 mi WSW 4.6 mph 17.3 mph 0.41 in   Overcast
2:15 AM 59.0 °F - 57.2 °F 94% 29.93 in 1.2 mi NW 10.4 mph - 0.25 in   Overcast
2:35 AM 55.4 °F - 55.4 °F 100% 29.91 in 1.5 mi NNW 10.4 mph - 0.45 in   Overcast
2:55 AM 55.4 °F - 55.4 °F 100% 29.92 in 2.5 mi Calm Calm - 0.56 in   Overcast
3:15 AM 55.4 °F - 55.4 °F 100% 29.91 in 5.0 mi East 3.5 mph - 0.04 in   Overcast
3:35 AM 55.4 °F - 55.4 °F 100% 29.92 in 3.0 mi ESE 6.9 mph - 0.07 in   Overcast
3:55 AM 55.4 °F - 55.4 °F 100% 29.92 in 7.0 mi East 4.6 mph - 0.09 in   Mostly Cloudy
4:35 AM 55.4 °F - 55.4 °F 100% 29.92 in 2.0 mi East 5.8 mph - 0.22 in   Overcast
4:55 AM 55.4 °F - 55.4 °F 100% 29.92 in 3.0 mi East 4.6 mph - 0.28 in   Overcast
5:15 AM 55.4 °F - 55.4 °F 100% 29.91 in 2.0 mi East 8.1 mph - 0.10 in   Overcast
5:35 AM 55.4 °F - 55.4 °F 100% 29.91 in 1.2 mi ESE 10.4 mph - 0.25 in   Overcast
5:55 AM 55.4 °F - 55.4 °F 100% 29.93 in 3.0 mi East 6.9 mph - 0.34 in   Overcast
6:15 AM 55.4 °F - 55.4 °F 100% 29.92 in 1.2 mi ESE 4.6 mph - 0.16 in   Overcast
6:35 AM 55.4 °F - 55.4 °F 100% 29.92 in 3.0 mi East 6.9 mph - 0.34 in   Overcast
6:55 AM 55.4 °F - 55.4 °F 100% 29.92 in 5.0 mi East 6.9 mph - 0.40 in   Overcast
7:15 AM 55.4 °F - 55.4 °F 100% 29.94 in 2.0 mi Calm Calm - 0.09 in   Overcast
7:35 AM 55.4 °F - 55.4 °F 100% 29.94 in 1.5 mi Calm Calm - 0.31 in   Overcast
7:55 AM 55.4 °F - 55.4 °F 100% 29.93 in 2.5 mi East 5.8 mph - 0.44 in   Overcast
8:15 AM 55.4 °F - 55.4 °F 100% 29.94 in 1.8 mi NE 5.8 mph - 0.15 in   Overcast
8:35 AM 55.4 °F - 55.4 °F 100% 29.94 in 1.0 mi ENE 6.9 mph - 0.35 in   Overcast
8:55 AM 55.4 °F - 55.4 °F 100% 29.94 in 1.8 mi East 8.1 mph - 0.49 in   Overcast
9:15 AM 55.4 °F - 55.4 °F 100% 29.92 in 2.5 mi ENE 5.8 mph - 0.08 in   Overcast
9:35 AM 55.4 °F - 55.4 °F 100% 29.93 in 3.0 mi East 5.8 mph - 0.13 in   Overcast
9:55 AM 55.4 °F - 55.4 °F 100% 29.93 in 2.5 mi East 6.9 mph - 0.21 in   Overcast
10:15 AM 55.4 °F - 55.4 °F 100% 29.96 in 2.5 mi SE 6.9 mph - 0.08 in   Overcast
10:35 AM 55.4 °F - 55.4 °F 100% 29.86 in 3.0 mi East 15.0 mph - 0.17 in   Overcast
10:55 AM 55.4 °F - 55.4 °F 100% 29.86 in 7.0 mi ESE 16.1 mph 24.2 mph 0.20 in   Mostly Cloudy
11:15 AM 55.4 °F - 55.4 °F 100% 29.85 in 7.0 mi East 18.4 mph 26.5 mph 0.01 in   Mostly Cloudy
11:35 AM 55.4 °F - 55.4 °F 100% 29.84 in 10.0 mi East 15.0 mph 20.7 mph 0.02 in   Mostly Cloudy
11:55 AM 57.2 °F - 57.2 °F 100% 29.86 in 10.0 mi SE 8.1 mph - 0.02 in   Clear
12:15 PM 57.2 °F - 57.2 °F 100% 29.86 in 10.0 mi SSE 4.6 mph - N/A   Scattered Clouds
12:35 PM 59.0 °F - 59.0 °F 100% 29.84 in 10.0 mi SE 9.2 mph - N/A   Scattered Clouds
12:55 PM 60.8 °F - 60.8 °F 100% 29.84 in 10.0 mi SE 6.9 mph - N/A   Clear
1:15 PM 59.0 °F - 59.0 °F 100% 29.82 in 10.0 mi SE 5.8 mph - N/A   Scattered Clouds
1:35 PM 59.0 °F - 59.0 °F 100% 29.82 in 10.0 mi SE 4.6 mph - N/A   Mostly Cloudy
1:55 PM 60.8 °F - 60.8 °F 100% 29.81 in 10.0 mi SSE 5.8 mph - N/A   Overcast
2:15 PM 60.8 °F - 60.8 °F 100% 29.80 in 10.0 mi SSE 9.2 mph - N/A   Overcast
2:35 PM 60.8 °F - 59.0 °F 94% 29.79 in 10.0 mi SE 11.5 mph - N/A   Overcast
2:55 PM 60.8 °F - 59.0 °F 94% 29.78 in 10.0 mi SE 10.4 mph - N/A   Scattered Clouds
3:15 PM 60.8 °F - 59.0 °F 94% 29.80 in 10.0 mi SSE 6.9 mph - N/A   Mostly Cloudy
3:35 PM 60.8 °F - 59.0 °F 94% 29.81 in 10.0 mi South 6.9 mph - N/A   Overcast
3:55 PM 60.8 °F - 59.0 °F 94% 29.82 in 10.0 mi SSE 5.8 mph - N/A   Overcast
4:15 PM 60.8 °F - 59.0 °F 94% 29.81 in 10.0 mi South 5.8 mph - N/A   Overcast
4:35 PM 60.8 °F - 59.0 °F 94% 29.82 in 10.0 mi South 5.8 mph - N/A   Overcast
4:55 PM 60.8 °F - 59.0 °F 94% 29.82 in 10.0 mi South 4.6 mph - N/A   Overcast
5:15 PM 59.0 °F - 59.0 °F 100% 29.83 in 10.0 mi South 8.1 mph - N/A   Overcast
5:35 PM 59.0 °F - 59.0 °F 100% 29.84 in 10.0 mi South 5.8 mph - N/A   Overcast
5:55 PM 59.0 °F - 59.0 °F 100% 29.86 in 10.0 mi SW 15.0 mph 20.7 mph N/A   Overcast
6:15 PM 55.4 °F - 53.6 °F 94% 29.89 in 10.0 mi WSW 19.6 mph 26.5 mph N/A   Overcast
6:35 PM 55.4 °F - 53.6 °F 94% 29.90 in 10.0 mi WSW 8.1 mph 18.4 mph N/A   Overcast
6:55 PM 53.6 °F - 51.8 °F 94% 29.90 in 10.0 mi WSW 12.7 mph 19.6 mph N/A   Overcast
7:15 PM 53.6 °F - 50.0 °F 88% 29.92 in 10.0 mi WSW 18.4 mph 27.6 mph N/A   Overcast
7:35 PM 51.8 °F - 50.0 °F 94% 29.93 in 10.0 mi West 15.0 mph 23.0 mph N/A   Overcast
7:55 PM 50.0 °F - 48.2 °F 94% 29.93 in 10.0 mi WSW 16.1 mph 20.7 mph N/A   Overcast
8:15 PM 50.0 °F - 46.4 °F 87% 29.94 in 10.0 mi West 20.7 mph 26.5 mph N/A   Overcast
8:55 PM 50.0 °F - 44.6 °F 82% 29.94 in 10.0 mi WSW 11.5 mph 21.9 mph N/A   Mostly Cloudy
9:15 PM 46.4 °F 41.9 °F 44.6 °F 93% 29.95 in 10.0 mi WSW 9.2 mph - N/A   Mostly Cloudy
9:35 PM 48.2 °F - 44.6 °F 87% 29.96 in 10.0 mi West 13.8 mph 18.4 mph N/A   Overcast
9:55 PM 48.2 °F - 44.6 °F 87% 29.96 in 10.0 mi West 16.1 mph 24.2 mph N/A   Overcast
10:15 PM 46.4 °F 40.1 °F 44.6 °F 93% 29.97 in 10.0 mi West 15.0 mph 21.9 mph N/A   Overcast
10:35 PM 46.4 °F 39.5 °F 42.8 °F 87% 29.97 in 10.0 mi West 17.3 mph 24.2 mph N/A   Overcast
10:55 PM 46.4 °F 40.1 °F 42.8 °F 87% 29.98 in 10.0 mi West 15.0 mph 24.2 mph N/A   Overcast
11:15 PM 46.4 °F 39.0 °F 42.8 °F 87% 29.99 in 10.0 mi West 19.6 mph 25.3 mph N/A   Overcast
11:35 PM 46.4 °F 39.2 °F 41.0 °F 81% 29.99 in 10.0 mi West 18.4 mph 27.6 mph N/A   Overcast
11:55 PM 44.6 °F 38.8 °F 41.0 °F 87% 30.00 in 10.0 mi West 11.5 mph - N/A   Overcast